Flag for Germany Weather past 2 weeks in Bonn, North Rhine-Westphalia, Germany

Now
51 °F

Rain. Low clouds.


Feels Like: 50 °F
Forecast: 46 / 59 °F
Wind: 5 mph from Southwest

Location: Bonn-Hangelar

Current Time: May 25, 2015 at 9:47:55 AM

Latest Report: May 25, 2015 at 9:00 AM


Visibility: 2 mi

Pressure: 30.01 "Hg

Humidity: 97%

Dew point: 51 °F

Location of BonnLocation

Historic Weather in Bonn — Graph

°F

Bonn temperature yesterday

Maximum temperature yesterday: 65 °F (at 6:00 PM)
Minimum temperature yesterday: 48 °F (at 7:00 AM)
Average temperature yesterday: 56 °F

Past Weeks' High & Low Weather Summary

 TemperatureHumidityPressure
High77 °F (May 11, 6:00 PM)100% (May 15, 6:00 AM)30.37 "Hg (May 15, 6:00 AM)
Low39 °F (May 21, 5:00 AM)36% (May 13, 5:00 PM)29.67 "Hg (May 18, 8:00 PM)
Average54 °F74%30.09 "Hg
* Reported May 10 9:00 AM — May 25 9:00 AM, Bonn, Weather by CustomWeather, © 2015

Note: Actual official high and low records may vary slightly from our data, if they occured in-between our weather recording intervals... More about our weather records

Advertising

Bonn weather history for previous 24 hours

 ConditionsComfort  
Time TempWeatherWind HumidityBarometerVisibility
9:00 AM
Mon, May 25
51 °FRain. Low clouds.5 mph97%30.01 "Hg2 mi
8:00 AM50 °FRain. Low clouds.2 mph90%30.02 "Hg9 mi
7:00 AM51 °FOvercast.3 mph81%30.02 "Hg12 mi
6:00 AM51 °FOvercast.2 mph84%30.02 "Hg22 mi
5:00 AM51 °FDrizzle. Overcast.2 mph81%30.03 "Hg14 mi
4:00 AM51 °FOvercast.1 mph73%30.03 "Hg16 mi
3:00 AM50 °FOvercast.2 mph76%30.04 "Hg19 mi
2:00 AM49 °FOvercast.1 mph73%30.06 "Hg17 mi
1:00 AM51 °FPassing clouds.1 mph63%30.06 "Hg19 mi
12:00 AM53 °FClear.1 mph58%30.07 "Hg18 mi
11:00 PM
Sun, May 24
55 °FOvercast.2 mph66%30.06 "Hg17 mi
10:00 PM52 °FPassing clouds.2 mph76%30.06 "Hg17 mi
9:00 PM59 °FSunny.3 mph60%30.04 "Hg19 mi
8:00 PM64 °FSunny.3 mph53%30.03 "Hg19 mi
7:00 PM64 °FSunny.6 mph53%30.03 "Hg11 mi
6:00 PM65 °FOvercast.5 mph55%30.05 "Hg7 mi
5:00 PM64 °FPartly sunny.5 mph57%30.06 "Hg19 mi
4:00 PM64 °FPartly sunny.3 mph53%30.08 "Hg22 mi
3:00 PM63 °FPartly sunny.2 mph52%30.09 "Hg22 mi
2:00 PM63 °FPartly sunny.2 mph59%30.09 "Hg16 mi
1:00 PM61 °FOvercast.2 mph55%30.11 "Hg16 mi
12:00 PM59 °FOvercast.1 mph62%30.11 "Hg14 mi
11:00 AM57 °FOvercast.2 mph69%30.12 "Hg14 mi
10:00 AM56 °FPartly sunny.1 mph71%30.14 "Hg16 mi
9:00 AM54 °FPartly sunny.2 mph79%30.14 "Hg16 mi
Weather by CustomWeather, © 2015

See weather overviewHow to use our weather pages